Location: Bun Machan
(52.1403°N, 7.3744°W)
Time: 00:37:16
(UTC+00:00)

Cosmos 2360 - Pass Details

Date: 14 July 2020
Orbit: 844 x 858 km, 70.8° (Epoch: 11 August)

Event Time Altitude Azimuth Distance (km) Brightness Sun altitude
Rises 02:32:21 0° 328° (NNW) 3,443 7.8 -11.9°
Reaches altitude 10° 02:34:49 10° 327° (NNW) 2,504 7.1 -11.8°
Maximum altitude 02:40:35 81° 242° (WSW) 876 4.2 -11.3°
Drops below altitude 10° 02:46:18 10° 156° (SSE) 2,488 6.3 -10.9°
Sets 02:48:45 0° 155° (SSE) 3,420 7.0 -10.7°
